Regional Weather Roundup
Issued by NWS

Home | Current Version | Previous Version | Text Only | Print | Product List | Glossary Off
Versions: 1 2 3 4 5 6 7 8 9 10 11 12 13 14 15 16 17 18 19 20 21 22 23 24 25 26 27 28 29 30 31 32 33 34 35 36 37 38 39 40 41 42 43 44 45 46 47 48 49 50

000
ASUS43 KMKX 200311
RWRWI

WISCONSIN REGIONAL WEATHER ROUNDUP
NATIONAL WEATHER SERVICE MILWAUKEE/SULLIVAN WI
1000 PM CDT SAT APR 19 2014

NOTE: "FAIR" INDICATES FEW OR NO CLOUDS BELOW 12,000 FEET WITH NO
SIGNIFICANT WEATHER AND/OR OBSTRUCTIONS TO VISIBILITY.

WIZ001-002-006>008-014>016-023>028-200400-
NORTHWEST WISCONSIN

CITY           SKY/WX    TMP DP  RH WIND       PRES   REMARKS
SUPERIOR ARPT  CLEAR     31  30  96 N3        30.04S
ASHLAND        CLOUDY    38  37  97 CALM      30.04S
HAYWARD        CLOUDY    47  41  80 S6        30.03R
SIREN          PTCLDY    45  40  81 SE6       30.02S
RICE LAKE      CLOUDY    52  45  77 SE10      30.03F
LADYSMITH      RAIN      52  46  81 SE6       30.07S
EAU CLAIRE     CLOUDY    60  43  53 S8        30.03F
MENOMONIE      CLOUDY    57  44  61 SE6       30.03S
NEW RICHMOND   CLOUDY    55  47  74 NW6       30.01R
OSCEOLA        CLOUDY    53  48  83 CALM      30.04S
$$

WIZ003>005-009-010-017-018-200400-
NORTH CENTRAL WISCONSIN

CITY           SKY/WX    TMP DP  RH WIND       PRES   REMARKS
WOODRUFF       MOCLDY    45  41  86 S8        30.08F
RHINELANDER    LGT RAIN  45  38  76 S8        30.11F
EAGLE RIVER    CLOUDY    45  35  68 S7        30.10S
LAND O LAKES   MOCLDY    46  36  66 S6        30.10S
PHILLIPS       CLOUDY    50  42  74 S9        30.06S
TOMAHAWK       LGT RAIN  44  40  86 CALM      30.11S
MEDFORD        LGT RAIN  53  41  64 SE6       30.09F
MERRILL        LGT RAIN  51  40  65 CALM      30.12F
$$

WIZ029-030-035-036-043>047-200400-
CENTRAL WISCONSIN

CITY           SKY/WX    TMP DP  RH WIND       PRES   REMARKS
WAUSAU         CLOUDY    56  37  49 SE9       30.11S
MOSINEE        CLOUDY    55  37  50 SE10      30.14S
MARSHFIELD     CLOUDY    58  40  51 S10       30.09S
STEVENS POINT  CLOUDY    54  36  49 SE7       30.14S
WAUPACA        CLOUDY    54  36  50 SE8       30.17S
WAUTOMA        CLOUDY    55  37  50 SE8       30.16S
WISC RAPIDS    CLOUDY    59  37  44 S7        30.13S
CAMP DOUGLAS   CLOUDY    60  37  43 SE6       30.12R
$$

WIZ011>013-019>022-031-037>040-048>050-200400-
NORTHEAST WISCONSIN

CITY           SKY/WX    TMP DP  RH WIND       PRES   REMARKS
ANTIGO         CLOUDY    47  36  65 SE10      30.15F
STURGEON BAY   CLOUDY    39  30  70 S12       30.21F WCI  32
GREEN BAY      CLOUDY    48  38  68 S10       30.19F
MANITOWOC      MOCLDY    43  34  70 S8        30.24R
APPLETON       MOCLDY    48  36  61 S12       30.19S
CLINTONVILLE   CLOUDY    50  34  53 S10       30.16F
OSHKOSH        MOCLDY    48  37  65 S8        30.18S
$$

WIZ032>034-041-042-053>061-200400-
SOUTHWEST WISCONSIN

CITY           SKY/WX    TMP DP  RH WIND       PRES   REMARKS
LA CROSSE      CLOUDY    66  38  35 S15       30.06S
SPARTA         CLOUDY    64  32  31 S12       30.10S
VIROQUA        MOCLDY    59  36  41 SE10      30.11S
BOSCOBEL       MOCLDY    65  35  33 S9        30.12S
PRAIRIE DU CHI MOCLDY    62  38  40 E5        30.11R
PLATTEVILLE    FAIR      58  35  41 SE10      30.16S
$$

WIZ056-057-062-063-064-067-068-200400-
SOUTH CENTRAL WISCONSIN

CITY           SKY/WX    TMP DP  RH WIND       PRES   REMARKS
BARABOO/DELLS  MOCLDY    59  33  37 S12G18    30.14S
LONE ROCK      CLOUDY    55  39  54 E9        30.14S
WATERTOWN      CLOUDY    50  38  61 SE10      30.20S
MADISON        CLOUDY    57  36  45 SE9       30.18R
MIDDLETON      FAIR      58  33  37 SE6       30.18S
MONROE         CLOUDY    55  35  47 SE9       30.18S
JANESVILLE     CLOUDY    52  39  62 E9        30.20R
$$

WIZ051-052-058>065-066-070>072-200400-
SOUTHEAST WISCONSIN

CITY           SKY/WX    TMP DP  RH WIND       PRES   REMARKS
MILWAUKEE      MOCLDY    44  34  67 SE3       30.25S
WAUKESHA       CLOUDY    45  34  65 SE5       30.24S
MILWAUKEE/TIMM MOCLDY    45  32  61 CALM      30.24F
RACINE         MOCLDY    47  34  60 S13       30.25S
BURLINGTON     MOCLDY    47  36  63 SW9       30.22S
KENOSHA        MOCLDY    46  34  62 SE9       30.24S
FOND DU LAC    MOCLDY    50  37  61 S13       30.19R
SHEBOYGAN      CLOUDY    43  34  70 S7        30.23S
WEST BEND      MOCLDY    43  32  65 S5        30.22F
JUNEAU         CLOUDY    51  33  49 SE15      30.21R
$$

LSZ147-162-200400-
LAKE SUPERIOR

STATION/POSITION TIME  TEMP    WIND        PRES    WAVE
                       AIR SEA DIR/SP/G            HT/PER
                 (UTC) (F)     (DEG/KT/KT) (MB)    (FT/S)
DEVILS ISLAND    0300   37        CALM     1017.7S
PORT WING        0240   33      50/  2/  3 1016.9S
SAXON HARBOR     0200          300/  3/  8 1016.9
$$

LMZ867-665-643>646-200400-
LAKE MICHIGAN

STATION/POSITION TIME  TEMP    WIND        PRES    WAVE
                       AIR SEA DIR/SP/G            HT/PER
                 (UTC) (F)     (DEG/KT/KT) (MB)    (FT/S)
NORTHPORT PIER   0200   37     150/ 10/ 14 1023.4R
SISTER BAY       0239   39     160/ 11/ 15   N/A
KEWAUNEE LAKESHO 0200   36     140/  6/ 10 1024.2R
SHEBOYGAN LAKESH 0300   41     170/  8/  9 1024.3F
PORT WASHINGTON  0200   43     250/  3/  4 1024.7R
MILWAUKEE LAKESH 0200   43     150/  6/  7   N/A
KENOSHA   LAKESH 0200   42     170/  7/  9   N/A
$$

TC  - TEMPERATURE IN CELSIUS
VSB - VISIBILITY IN STATUTE MILES
WCI - WIND CHILL INDEX
HX  - HEAT INDEX




USA.gov is the U.S. government's official web portal to all federal, state and local government web resources and services.